Find Starlink 38326

NORAD ID: 100438 Int'l Des: 2026-193 Owner: SPXS Country: US Constellation: starlink operational

当前视图

正在加载3D地球...

About Starlink 38326

Starlink 38326 (NORAD 100438) is a starlink constellation satellite launched Aug 22, 2026 by SPXS of US. with a mass of 575.00 kg.

即将过境

Passes for default location (London). Set your location on the main map for personalized predictions.

高度历史

Loading altitude history...

两行轨道根数

1 A0438U 26193F 26254.62324311 -.00234884 00000-0 -19824-2 0 9994
2 A0438 69.9987 98.7686 0004236 278.5725 81.4991 15.70210504 4315
Epoch: Sep 11, 2026 • Age: 8 hours

当前状态

高度 364.5 km
远地点 / 近地点 N/A
速度 7.69 km/s
星下点 32.83°N, 74.95°W
发射日期 Aug 22, 2026
运行时间 20 days
类型 internet

技术详情

分类 Payload
质量 575.00 kg
干质量 530.00 kg
总质量 575.00 kg
长度 0.30 m
直径 4.10 m
跨度 29.00 m
形状 Box + pan
制造商 SPXS
平台类型 Starlink V2MO
阶段状态 In Orbit
所有者/国家 SPXS/US

Most Searched